User: anonymous
Location: Unspecified
(0.0000°N, 0.0000°E)
Time: 21:53:26
(UTC+00:00)
Language:

FALCON 9 R/B - Orbit

View from above orbital plane
View from above orbital plane
View from above satellite
View from above satellite

Ground track
Ground track

The orbit data is extracted from the following two-line orbital elements,

1 37253U 10066K   14261.11911478  .00011527  00000-0  12422-2 0  1798
2 37253 034.5336 032.3422 4354430 210.9924 113.9333 06.75350465 91837
Epoch (UTC): 18 September 2014 02:51:31
Eccentricity: 0.4354430
inclination: 34.5336°
perigee height: 296 km
apogee height: 10592 km
right ascension of ascending node: 32.3422°
argument of perigee: 210.9924°
revolutions per day: 6.75350465
mean anomaly at epoch: 113.9333°
orbit number at epoch: 9183

The dashed part of the orbit path shows where the satellite is in the earth's shadow,  

DLR